Wind_Speed
52 51 51 50 51 51 50 50 51 51 53 54 56 58 60 61 63 64 65 66 68 69 70 71 72 73 74 75 75 76 77 77 78 79 80 82 83 84
52 51 50 50 51 51 50 51 53 54 55 57 59 61 63 64 66 68 69 70 71 72 73 74 75 76 76 77 78 79 80 81 82 83 84 86 87 87
51 50 50 50 51 51 51 54 56 57 59 61 64 65 67 68 69 71 72 72 74 75 75 76 77 78 80 81 82 83 84 85 86 87 87 87 88 87
50 49 49 50 51 52 54 57 58 60 62 64 66 67 69 71 72 73 74 75 76 77 78 79 81 82 84 85 86 86 86 86 86 85 85 84 83 82
48 48 48 49 51 53 56 59 61 63 64 66 67 69 71 72 73 74 76 77 78 80 82 83 84 85 85 85 84 83 82 81 79 78 77 76 75 74
45 46 48 50 53 55 58 60 62 64 66 68 70 71 72 74 75 76 77 79 81 83 84 83 83 82 82 81 78 76 74 72 70 68 66 65 64 64
44 46 48 51 54 56 58 61 63 66 68 69 70 72 74 76 78 79 80 80 81 81 80 79 78 76 74 72 70 67 65 63 61 59 58 57 56 56
43 46 48 52 55 57 60 62 64 66 68 70 71 74 76 78 79 80 79 78 75 74 72 69 68 65 63 62 62 61 60 58 56 55 52 51 50 49
44 47 49 53 56 57 59 61 64 67 70 72 74 76 77 78 77 75 73 70 67 66 63 59 59 59 59 59 59 58 56 54 52 50 48 46 45 44
43 46 49 52 55 57 59 62 65 68 71 73 74 75 74 73 71 68 66 62 59 59 59 56 55 55 54 53 53 53 51 49 48 46 44 42 41 41
43 46 49 52 55 57 60 63 66 68 70 71 72 71 69 67 64 61 57 56 54 54 56 54 51 48 46 46 48 49 48 46 43 41 39 37 36 36
44 47 50 53 55 58 61 63 65 67 68 69 68 65 61 57 55 53 52 52 51 49 49 47 45 45 40 39 42 43 43 42 40 37 33 31 31 31
45 48 51 54 57 60 62 63 64 65 64 61 58 54 50 48 48 48 49 48 47 45 45 43 41 40 38 35 34 37 38 38 37 34 31 28 28 27
46 49 52 55 58 60 62 62 61 59 55 51 47 44 43 43 43 45 45 45 44 43 42 40 38 36 34 31 29 30 33 34 33 30 28 26 25 24
47 51 54 56 59 60 60 57 53 50 46 43 41 39 39 40 41 42 42 42 42 42 41 39 35 33 31 28 25 25 25 27 29 26 25 23 23 22
50 53 55 58 58 56 52 48 45 42 40 38 37 37 37 38 39 40 39 38 38 39 40 37 34 32 29 27 24 22 22 22 23 23 21 20 20 19
52 54 56 55 52 48 44 41 40 38 37 36 35 35 35 36 37 38 37 36 36 35 34 35 34 32 30 27 23 21 20 20 20 20 19 19 20 18
53 54 52 49 45 41 39 38 36 35 34 34 33 33 33 34 35 36 35 35 35 34 33 32 30 29 27 28 27 22 20 20 20 20 19 18 19 19
53 51 46 42 39 37 36 35 34 34 34 33 32 32 32 33 34 34 34 34 34 33 33 32 30 27 24 23 25 25 21 19 19 20 20 18 18 19
49 45 40 38 36 35 34 33 33 33 33 32 32 32 32 32 33 33 33 33 32 31 31 32 31 29 26 23 22 24 23 20 19 19 19 20 20 20
45 41 38 36 34 33 32 32 33 32 32 32 31 31 31 31 32 32 32 32 31 31 31 31 31 30 27 24 23 23 23 22 21 19 18 19 20 21
43 39 36 34 32 31 32 32 32 31 31 31 30 30 31 31 31 32 32 31 30 30 30 31 31 29 27 25 23 22 21 22 23 22 21 19 19 19
41 38 35 32 31 31 31 31 31 31 31 30 30 30 30 31 31 31 31 31 30 30 30 30 29 29 28 26 25 23 22 21 21 22 22 22 21 20
Wind_Direction
272 274 276 278 280 282 283 283 284 286 287 288 290 292 293 294 294 295 295 295 294 293 293 292 291 290 289 287 286 285 284 283 282 280 279 278 277 276
272 274 276 278 280 281 281 282 284 286 287 289 291 292 293 294 294 295 295 295 294 293 292 291 290 289 288 288 286 285 285 284 283 281 280 279 277 276
271 274 276 277 278 280 281 282 285 286 288 290 292 293 294 294 295 296 296 295 295 294 293 292 291 290 289 288 287 286 285 284 283 282 280 279 277 276
271 274 275 277 278 280 281 284 285 287 289 291 293 294 295 295 297 297 296 296 295 295 294 293 292 292 291 289 288 287 286 285 284 282 281 279 277 275
271 274 275 277 279 280 282 285 288 290 292 293 294 295 296 297 297 297 298 297 296 296 295 294 294 293 292 291 290 289 287 286 284 282 280 278 276 274
271 273 275 277 279 281 283 286 289 292 293 295 296 297 298 298 298 298 298 298 297 296 296 295 295 294 293 292 291 289 288 286 285 283 281 279 276 274
272 275 276 278 281 284 287 290 291 293 295 297 298 299 299 299 299 299 299 298 298 297 297 297 296 296 294 293 292 290 289 287 285 284 282 280 277 274
274 277 280 283 286 288 291 293 295 296 298 299 300 300 300 300 300 300 300 300 299 298 298 298 297 297 296 295 293 291 290 288 286 285 283 281 278 274
277 281 285 287 289 292 295 297 298 300 300 301 302 302 302 302 302 302 302 302 301 300 299 299 298 298 297 296 294 292 290 288 287 286 284 281 278 274
282 286 289 292 295 297 299 300 301 302 302 303 304 304 304 304 304 304 304 303 303 302 301 301 299 299 298 296 295 293 292 290 289 287 286 282 277 273
289 292 294 297 298 300 301 302 303 304 305 306 306 306 306 306 306 306 306 305 304 303 303 304 303 301 300 298 296 295 295 293 292 290 288 282 276 272
295 297 299 300 302 304 305 306 306 307 308 308 308 308 308 309 309 309 309 309 308 306 305 306 305 303 301 297 296 296 296 296 296 295 292 285 279 274
300 301 303 304 305 307 308 308 308 309 310 310 310 310 311 312 313 314 315 315 314 313 312 311 309 307 305 301 296 295 296 296 297 298 294 288 282 276
304 305 306 308 309 310 310 310 311 312 313 313 313 313 315 316 318 319 320 320 320 319 319 319 317 314 311 307 301 296 297 298 299 299 296 292 285 279
308 309 310 312 312 312 313 313 315 316 316 316 316 316 317 319 321 322 323 324 324 324 326 327 326 323 319 315 309 303 300 299 301 301 299 295 289 282
313 313 314 315 315 315 316 317 319 319 319 318 318 319 320 322 324 325 325 326 327 327 329 331 332 330 327 323 319 314 310 306 304 306 306 301 294 286
316 317 317 317 317 318 319 320 321 321 321 321 321 321 322 324 326 327 328 330 331 331 331 331 332 332 330 327 325 322 319 315 311 310 308 305 301 295
319 319 319 319 319 319 320 321 323 324 324 323 323 324 324 325 328 329 331 332 333 333 334 334 334 333 332 329 329 329 326 319 314 311 309 305 300 297
321 320 319 319 319 320 321 322 323 324 324 324 324 325 326 327 329 330 331 333 334 335 335 336 336 336 332 327 323 325 325 320 316 312 310 306 301 296
322 320 319 319 320 321 322 323 324 324 324 325 326 326 327 329 331 332 332 334 335 336 337 337 338 338 336 333 328 326 325 324 319 314 310 308 304 299
322 319 318 319 320 321 322 324 324 325 325 326 326 327 328 330 332 334 335 336 337 338 338 339 339 339 338 337 335 331 327 326 324 320 315 310 306 303
320 317 316 317 318 320 322 324 325 325 326 326 326 327 329 331 333 334 335 336 337 339 339 339 339 339 339 338 337 334 330 328 327 326 323 318 312 306
318 315 314 315 316 318 321 323 324 325 325 326 326 327 329 331 332 334 335 337 337 338 338 339 339 340 340 341 340 338 335 332 330 327 325 323 320 314
Height
5699 5698 5696 5695 5693 5691 5688 5685 5683 5680 5677 5672 5666 5662 5657 5653 5648 5644 5639 5634 5629 5624 5619 5614 5609 5605 5600 5596 5593 5589 5586 5582 5579 5576 5573 5571 5568 5566
5687 5686 5685 5683 5681 5678 5675 5672 5669 5666 5663 5659 5653 5647 5642 5637 5631 5627 5621 5616 5610 5604 5598 5593 5588 5583 5578 5573 5568 5564 5560 5556 5552 5549 5545 5542 5539 5536
5676 5674 5673 5671 5668 5665 5662 5659 5655 5651 5648 5644 5638 5632 5626 5620 5614 5608 5601 5595 5589 5582 5576 5570 5564 5559 5553 5548 5542 5537 5533 5528 5524 5519 5515 5511 5508 5506
5664 5663 5661 5658 5656 5653 5649 5645 5641 5636 5632 5628 5622 5615 5609 5601 5595 5589 5582 5575 5567 5560 5553 5546 5539 5533 5526 5520 5514 5508 5503 5497 5493 5488 5484 5481 5477 5474
5652 5651 5649 5646 5643 5640 5636 5631 5626 5621 5616 5611 5605 5598 5591 5582 5576 5570 5562 5553 5544 5536 5528 5520 5513 5505 5497 5490 5484 5478 5472 5467 5462 5458 5454 5450 5447 5445
5641 5640 5637 5634 5631 5627 5622 5617 5612 5606 5600 5594 5588 5580 5572 5563 5556 5549 5542 5531 5520 5510 5502 5494 5485 5477 5469 5462 5456 5450 5444 5439 5435 5431 5428 5424 5421 5419
5631 5628 5626 5622 5618 5614 5609 5603 5597 5590 5584 5577 5570 5562 5553 5544 5536 5527 5519 5510 5498 5485 5478 5468 5459 5452 5443 5435 5429 5424 5420 5416 5412 5409 5406 5402 5400 5398
5620 5618 5614 5610 5606 5601 5595 5588 5581 5574 5567 5560 5552 5542 5533 5523 5514 5504 5494 5486 5477 5464 5456 5448 5436 5430 5422 5415 5407 5402 5398 5394 5391 5388 5385 5382 5380 5378
5610 5607 5603 5598 5593 5587 5581 5573 5565 5556 5549 5541 5532 5522 5512 5502 5493 5483 5472 5463 5453 5442 5436 5432 5420 5413 5405 5396 5388 5383 5378 5375 5372 5370 5367 5365 5363 5361
5599 5596 5591 5586 5580 5574 5567 5559 5549 5540 5531 5522 5512 5502 5491 5481 5472 5463 5454 5446 5437 5424 5415 5414 5406 5397 5389 5380 5371 5365 5361 5358 5356 5353 5351 5349 5347 5346
5588 5584 5579 5573 5567 5560 5553 5544 5534 5523 5512 5502 5491 5481 5471 5462 5453 5445 5437 5429 5423 5412 5399 5395 5389 5382 5376 5367 5357 5350 5345 5342 5340 5338 5336 5334 5332 5332
5578 5573 5567 5560 5553 5545 5537 5527 5517 5506 5495 5483 5473 5463 5454 5445 5437 5430 5422 5414 5406 5399 5388 5381 5374 5367 5365 5359 5348 5339 5333 5329 5326 5325 5323 5321 5320 5319
5566 5560 5554 5546 5538 5530 5520 5511 5501 5490 5479 5468 5458 5449 5441 5433 5425 5417 5409 5400 5392 5384 5376 5369 5363 5354 5348 5346 5340 5331 5324 5320 5317 5314 5312 5310 5309 5309
5555 5548 5540 5532 5524 5514 5504 5494 5484 5474 5464 5455 5447 5439 5431 5423 5415 5407 5399 5389 5380 5372 5365 5357 5351 5344 5337 5333 5329 5324 5317 5312 5309 5306 5304 5302 5300 5299
5542 5535 5527 5518 5508 5498 5488 5478 5469 5460 5452 5444 5437 5429 5422 5415 5407 5399 5391 5382 5372 5363 5356 5348 5341 5335 5328 5323 5320 5316 5312 5307 5302 5299 5297 5295 5293 5292
5529 5521 5512 5502 5493 5483 5474 5465 5457 5449 5442 5435 5428 5421 5414 5407 5400 5392 5384 5376 5368 5358 5349 5341 5335 5328 5322 5317 5312 5309 5305 5302 5298 5294 5291 5289 5287 5285
5516 5507 5498 5488 5479 5470 5462 5455 5448 5441 5434 5427 5421 5414 5408 5400 5393 5385 5378 5370 5362 5355 5347 5338 5330 5324 5317 5312 5308 5304 5300 5297 5293 5290 5287 5285 5282 5280
5503 5494 5484 5475 5467 5460 5453 5447 5440 5433 5427 5420 5414 5408 5401 5394 5387 5379 5372 5364 5357 5349 5342 5335 5328 5322 5315 5308 5302 5299 5296 5292 5289 5285 5282 5280 5278 5275
5490 5481 5473 5465 5458 5452 5445 5439 5433 5427 5420 5414 5408 5402 5395 5389 5382 5374 5367 5360 5352 5345 5337 5330 5324 5318 5313 5308 5302 5295 5292 5289 5285 5282 5278 5276 5273 5271
5479 5471 5463 5456 5450 5444 5438 5432 5426 5420 5414 5408 5402 5396 5390 5383 5376 5369 5362 5355 5349 5342 5334 5327 5320 5314 5308 5304 5299 5293 5287 5284 5281 5277 5274 5271 5268 5265
5469 5461 5455 5448 5442 5437 5431 5426 5420 5414 5408 5402 5396 5390 5384 5378 5371 5365 5358 5351 5344 5338 5331 5324 5317 5311 5305 5299 5295 5290 5284 5279 5275 5272 5269 5266 5262 5259
5459 5452 5446 5440 5435 5430 5425 5419 5414 5408 5402 5397 5391 5385 5379 5373 5367 5360 5354 5347 5341 5334 5328 5321 5314 5308 5302 5296 5291 5286 5282 5276 5271 5266 5263 5260 5257 5254
5450 5443 5438 5433 5428 5423 5418 5413 5408 5402 5397 5391 5386 5380 5374 5368 5362 5356 5350 5343 5337 5331 5325 5319 5312 5305 5299 5293 5287 5282 5278 5273 5268 5264 5259 5254 5251 5247